DW7816 Weather Reports


Display with metric or nautical units.
time (UTC)temp
F
wind
direction
speed
MPH
gust
MPH
rain 1hr
in
rain 24hr
in
rain mn
in
humidity
%
barometer
mb
20260502122627 42 0 0.0 0.0 0.00 0.00 0.00 99 1020.4
20260502120523 39 0 0.0 0.0 0.00 0.00 0.00 98 1020.2
20260502115501 38 0 0.0 0.0 0.00 0.00 0.00 97 1020.2
20260502114431 38 0 0.0 0.0 0.00 0.00 0.00 97 1019.9
20260502113417 38 342 0.0 0.0 0.00 0.00 0.00 97 1019.8
20260502112359 37 342 0.0 0.0 0.00 0.00 0.00 97 1019.8
20260502111356 37 342 0.0 0.0 0.00 0.00 0.00 97 1019.8
20260502110324 37 342 0.0 0.0 0.00 0.00 0.00 97 1019.7
20260502104158 37 342 0.0 0.0 0.00 0.00 0.00 97 1019.4
20260502103156 37 342 0.0 0.0 0.00 0.00 0.00 96 1019.4
20260502102154 37 342 0.0 0.0 0.00 0.00 0.00 96 1019.2
20260502101137 37 342 0.0 0.0 0.00 0.00 0.00 96 1019.2
20260502100139 37 342 0.0 0.0 0.00 0.00 0.00 96 1019.0
20260502071420 39 276 0.0 0.0 0.00 0.00 0.00 95 1018.6
20260502070422 39 275 0.0 0.0 0.00 0.00 0.00 95 1018.7
20260502064300 40 275 0.0 0.0 0.00 0.00 0.00 94 1018.8
20260502063258 40 275 0.0 0.0 0.00 0.00 0.00 94 1018.8
20260502062319 40 275 0.0 0.0 0.00 0.00 0.00 94 1018.9
20260502061246 41 275 0.0 0.0 0.00 0.00 0.00 94 1019.0
20260502060214 41 275 0.0 0.0 0.00 0.00 0.00 94 1019.0
20260502055152 41 276 0.0 0.0 0.00 0.00 0.00 94 1019.0
20260502054136 41 276 0.0 0.0 0.00 0.00 0.00 95 1018.9
20260502053111 41 276 0.0 0.0 0.00 0.00 0.00 95 1018.9
20260502052113 41 275 0.0 0.0 0.00 0.00 0.00 94 1018.8
20260502051134 41 275 0.0 0.0 0.00 0.00 0.00 94 1018.7
20260502050133 41 276 0.0 0.0 0.00 0.00 0.00 93 1018.8
20260502045130 41 275 0.0 0.0 0.00 0.00 0.00 93 1018.8
20260502044118 42 276 0.0 0.0 0.00 0.00 0.00 92 1018.8
20260502043113 42 275 0.0 0.0 0.00 0.00 0.00 92 1018.7
20260502042120 42 275 0.0 0.0 0.00 0.00 0.00 91 1018.8
20260502040001 43 276 0.0 0.0 0.00 0.00 0.00 91 1018.8
20260502035012 43 276 0.0 0.0 0.00 0.00 0.00 90 1019.0
20260502032900 44 276 0.0 0.0 0.00 0.00 0.00 89 1019.0
20260502031912 44 276 0.0 0.0 0.00 0.00 0.00 88 1019.1
20260502025823 45 275 0.0 0.0 0.00 0.00 0.00 85 1019.1
20260502023621 46 275 0.0 0.0 0.00 0.00 0.00 85 1019.0
20260502022634 46 276 0.0 0.0 0.00 0.00 0.00 84 1018.8
20260502021654 47 276 0.0 0.0 0.00 0.00 0.00 83 1018.8
20260502020630 48 276 0.0 0.0 0.00 0.00 0.00 81 1018.7
20260502015619 49 276 0.0 0.0 0.00 0.00 0.00 78 1018.6
20260502014643 50 276 0.0 0.0 0.00 0.00 0.00 77 1018.5
20260502012510 52 276 0.0 0.0 0.00 0.00 0.00 70 1018.2
20260502011502 53 276 0.0 0.0 0.00 0.00 0.00 65 1017.9
20260502010506 54 276 0.0 0.0 0.00 0.00 0.00 62 1017.8
20260502005459 55 276 0.0 0.0 0.00 0.00 0.00 61 1017.6
20260502004457 56 276 0.0 0.0 0.00 0.00 0.00 60 1017.3
20260502002307 58 266 0.0 0.0 0.00 0.00 0.00 54 1017.1
20260502001332 59 21 0.0 6.0 0.00 0.00 0.00 51 1017.0
20260502000347 59 55 0.0 3.0 0.00 0.00 0.00 49 1016.9
20260501234215 60 225 1.0 7.0 0.00 0.00 0.00 48 1017.0
20260501232024 62 48 4.0 12.0 0.00 0.00 0.00 46 1017.1
20260501231049 62 71 4.0 14.0 0.00 0.00 0.00 41 1017.1
20260501230110 62 52 4.0 14.0 0.00 0.00 0.00 42 1017.0
20260501225049 63 42 3.0 10.0 0.00 0.00 0.00 45 1016.9
20260501224049 63 48 4.0 10.0 0.00 0.00 0.00 46 1016.8
20260501223101 63 22 4.0 10.0 0.00 0.00 0.00 46 1017.0
20260501221001 62 42 5.0 14.0 0.00 0.00 0.00 48 1016.8
20260501214918 62 65 5.0 12.0 0.00 0.00 0.00 42 1016.7
20260501213915 63 49 4.0 12.0 0.00 0.00 0.00 44 1016.7
20260501212845 63 69 2.0 11.0 0.00 0.00 0.00 40 1017.0
20260501211851 62 103 5.0 11.0 0.00 0.00 0.00 44 1017.3
20260501210826 63 63 4.0 14.0 0.00 0.00 0.00 44 1017.4
20260501204636 62 37 4.0 14.0 0.00 0.00 0.00 50 1018.0
20260501203617 63 134 4.0 14.0 0.00 0.00 0.00 43 1018.2
20260501202634 63 96 4.0 12.0 0.00 0.00 0.00 47 1018.2
20260501201618 62 51 2.0 12.0 0.00 0.00 0.00 44 1018.4
20260501200637 63 32 5.0 13.0 0.00 0.00 0.00 46 1018.9
20260501195606 62 81 4.0 13.0 0.00 0.00 0.00 47 1018.9
20260501194620 62 115 3.0 8.0 0.00 0.00 0.00 46 1019.0
20260501193550 61 62 4.0 12.0 0.00 0.00 0.00 47 1019.4
20260501192525 62 66 2.0 10.0 0.00 0.00 0.00 42 1019.4
20260501191503 62 123 4.0 10.0 0.00 0.00 0.00 45 1019.4
20260501190446 61 13 3.0 7.0 0.00 0.00 0.00 44 1019.4
20260501185422 62 115 3.0 10.0 0.00 0.00 0.00 47 1019.5
20260501184428 62 47 2.0 13.0 0.00 0.00 0.00 49 1019.6
20260501183408 61 75 4.0 13.0 0.00 0.00 0.00 47 1019.6
20260501182412 62 80 2.0 9.0 0.00 0.00 0.00 47 1019.7
20260501181351 61 355 1.0 7.0 0.00 0.00 0.00 52 1019.8
20260501180402 60 37 5.0 13.0 0.00 0.00 0.00 48 1019.9
20260501174226 61 42 3.0 8.0 0.00 0.00 0.00 54 1019.7
20260501172120 59 71 2.0 9.0 0.00 0.00 0.00 48 1019.8
20260501171119 59 38 3.0 9.0 0.00 0.00 0.00 51 1019.8
20260501170059 59 117 3.0 9.0 0.00 0.00 0.00 52 1019.9
20260501163932 59 154 2.0 7.0 0.00 0.00 0.00 52 1019.9
20260501162858 59 59 1.0 6.0 0.00 0.00 0.00 54 1020.0
20260501161852 58 19 3.0 10.0 0.00 0.00 0.00 55 1020.0
20260501155720 58 78 2.0 9.0 0.00 0.00 0.00 58 1020.0
20260501154657 58 67 2.0 10.0 0.00 0.00 0.00 53 1020.0
20260501153719 57 115 3.0 10.0 0.00 0.00 0.00 53 1019.9
20260501152702 57 123 2.0 7.0 0.00 0.00 0.00 56 1019.9
20260501150553 56 28 4.0 10.0 0.00 0.00 0.00 57 1019.8
20260501145609 56 159 3.0 8.0 0.00 0.00 0.00 57 1019.7